RH
14 14 16 18 21 19 18 18 25 25 26 29 33 38 41 43 44 49 42 42 41 39 37 29 31 33 28 30 28 24 23 21 22 23 22 21 20 26 33 39 42 50 63 62 64 56 39 32 25
16 15 16 19 19 16 15 17 23 27 27 32 38 38 37 42 44 43 44 45 43 39 38 37 31 34 30 28 24 23 21 20 20 23 24 23 20 35 32 33 43 49 60 61 56 50 41 30 26
19 21 24 22 20 16 16 18 25 25 31 35 36 37 39 41 41 41 40 41 41 39 39 38 33 32 31 28 26 25 23 23 24 26 24 24 25 36 32 35 43 50 55 56 50 44 38 31 28
22 24 24 26 22 21 19 25 24 26 34 30 35 37 38 36 36 36 34 36 37 39 40 38 34 31 30 29 30 27 29 29 34 34 32 30 30 39 37 42 48 54 54 48 46 41 35 32 31
24 24 23 24 22 21 21 23 27 27 31 29 34 34 34 32 32 29 30 35 40 42 40 37 35 30 31 30 39 31 32 34 36 36 40 47 44 42 40 49 61 59 53 48 42 34 33 36 37
24 24 23 21 20 19 20 24 27 29 32 35 35 33 34 33 37 34 30 31 33 39 40 40 38 37 34 32 35 34 34 35 39 37 42 45 50 49 51 52 61 58 51 50 43 39 42 38 41
21 20 19 21 21 19 20 22 27 30 32 33 32 31 32 29 33 35 34 30 31 29 29 30 30 33 33 34 38 42 40 37 42 41 44 48 50 53 51 52 57 56 53 54 49 47 48 47 50
19 20 20 21 21 23 21 21 24 29 30 31 33 28 25 26 31 32 34 30 29 29 26 27 29 31 32 32 35 43 42 43 47 46 48 52 54 57 57 54 58 59 57 53 51 52 51 51 53
19 19 17 19 18 20 22 21 22 23 27 29 30 26 24 24 25 27 29 29 26 25 25 24 27 33 36 45 45 44 41 45 53 56 58 62 63 58 57 54 54 54 52 56 55 54 55 56 60
22 20 19 17 17 18 19 19 21 23 23 23 23 23 21 21 24 26 25 25 25 19 20 26 29 36 42 44 48 45 49 52 55 60 62 67 68 65 62 58 52 52 54 56 59 60 62 65 66
24 19 19 17 17 19 19 19 21 22 24 24 24 21 21 23 24 25 26 24 22 24 25 22 24 26 29 36 40 45 48 52 52 58 61 70 68 65 64 60 57 54 59 64 69 69 70 72 75
21 20 19 18 17 18 20 19 19 18 19 21 23 20 20 24 26 23 22 27 28 23 22 20 22 27 30 32 33 30 30 36 46 51 55 62 63 66 63 63 65 59 57 61 67 76 78 72 70
22 21 21 21 21 20 19 18 18 18 19 20 21 21 19 19 23 24 25 26 26 25 24 21 19 25 29 26 26 25 26 26 29 30 34 37 41 44 48 51 59 60 60 66 74 81 86 82 79
25 23 22 21 20 21 20 18 19 17 17 17 19 20 18 18 20 24 23 25 22 24 25 21 20 23 27 26 21 21 21 22 25 26 26 25 30 38 41 42 45 53 61 69 75 77 81 92 91
26 26 23 22 21 21 22 20 18 17 18 18 18 18 18 19 19 22 22 23 23 24 25 22 23 23 24 24 24 24 23 24 27 28 30 31 31 33 36 42 49 56 62 68 75 76 85 91 95
28 28 26 23 23 24 24 20 20 18 18 18 19 18 19 19 19 20 21 22 23 25 23 24 25 25 26 26 26 26 29 29 33 35 35 37 39 40 40 43 49 52 54 59 66 69 74 87 94
32 27 27 25 23 24 24 21 23 22 22 21 20 19 19 20 21 21 20 21 23 23 24 24 27 27 27 29 28 28 30 32 33 34 38 39 41 40 42 47 52 55 59 65 70 75 80 85 91
32 34 29 26 26 26 26 24 22 22 22 21 21 21 20 21 22 22 22 23 24 24 25 26 27 28 28 29 28 30 31 31 32 36 39 41 41 42 43 47 53 61 66 72 75 80 88 92 90
35 33 31 28 31 31 28 25 21 22 22 20 19 22 21 21 23 24 24 24 25 25 26 27 28 28 28 29 30 30 30 31 34 39 43 44 42 42 45 50 57 62 71 77 80 82 88 91 95
41 40 37 34 34 33 31 29 24 23 22 22 21 20 20 22 24 25 26 27 26 26 28 28 28 28 30 30 30 31 33 31 34 38 42 43 43 48 54 59 63 69 78 86 89 92 89 92 99
48 46 41 40 40 38 36 34 25 23 23 24 24 21 20 21 23 25 28 30 30 31 29 30 29 30 30 29 29 28 31 32 34 38 42 43 45 54 59 62 68 78 84 91 99 89 87 90 97
49 48 49 48 48 47 42 37 31 25 23 25 25 23 22 21 22 24 28 30 32 32 30 30 31 30 28 28 28 32 35 37 40 41 42 45 51 58 60 69 75 85 87 85 86 93 89 97 97
47 52 54 56 54 53 48 48 32 29 24 24 26 26 26 24 23 26 29 31 33 30 31 32 30 29 29 30 32 32 37 38 39 39 45 49 59 66 69 76 81 90 92 88 90 94 93 94 96
59 59 57 59 58 57 48 47 35 33 28 27 27 30 30 28 26 30 32 34 35 32 33 31 29 29 31 33 32 34 36 37 37 41 49 56 61 65 72 73 82 88 90 90 92 92 93 95 96
56 62 66 72 69 58 60 55 43 37 38 32 30 29 31 31 30 33 33 35 37 36 32 30 29 32 34 33 34 36 36 37 43 46 55 61 63 64 69 77 80 85 89 90 89 88 88 89 93
54 54 66 71 68 68 68 64 51 49 49 41 34 31 33 36 38 36 37 38 40 38 31 31 33 34 36 36 38 39 40 45 48 51 59 65 64 62 61 63 73 79 83 82 81 81 85 89 93
55 60 50 66 65 74 64 56 52 54 52 47 39 35 40 44 42 41 40 40 41 36 33 34 37 37 38 41 42 43 45 48 50 57 62 66 66 65 64 59 60 66 72 70 78 81 85 93 89
62 60 72 78 79 80 62 61 56 57 55 53 43 42 44 47 47 47 45 41 38 36 35 37 39 39 40 42 46 47 52 53 54 58 62 63 65 67 70 72 66 67 70 78 74 67 78 87 89
67 70 72 70 64 59 58 65 56 59 64 64 54 50 51 51 51 52 47 43 40 38 38 39 39 38 38 41 44 48 52 55 60 62 67 72 74 78 81 80 82 73 69 67 71 68 71 87 94
71 88 73 64 63 59 58 59 58 62 68 68 66 58 53 52 53 51 48 44 41 39 40 39 39 38 37 39 40 44 50 55 58 58 62 75 79 79 81 84 86 82 69 63 62 64 66 84 96